Weather in Chodrayal

Russia / Mari El Republic     56°46′43″N   48°51′03″E
temp.,
°C
wind,
m/s
gust,
m/s
humid.,
%
clouds,
%
prec.,
mm/h
press.,
hPa
HPBL,
m
3 march, wed
wed300:00−5w379787 0.1 999177
03:00−4w499789 0.6 999309
06:00−5wnw61096100 0.7 999500
09:00−5nw61194100 1.4 1001614
12:00−5nw71090100 0.4 1002659
15:00−5nw71089100 0.5 1003774
18:00−6wnw61091100 0.2 1003714
21:00−7w51090100 0.3 1004676
4 march, thu
thu400:00−8wsw51095100 0.1 1001333
03:00−5wsw51296100 1.0 999568
06:00−5sw51195100 0.4 996428
09:00−3wsw61196100 1.4 994790
12:00−2wsw81294100 0.9 992986
15:00−1wnw61095100 3.8 991761
18:00−5w6148934 0.4 993469
21:00−6wnw4109551 0.5 996322
5 march, fri
fri500:00−11wnw349635 0.0 99864
03:00−14nw339633 0.0 99923
06:00−16nnw339194 0.0 100123
09:00−14n359070 0.0 1002171
12:00−12nnw35900 0.0 1003349
15:00−11nw478921 0.0 1005499
18:00−14wnw369690 0.0 1008101
21:00−16wnw339889 0.1 101037
6 march, sat
sat600:00−16wsw339976 0.0 101241
03:00−16wsw339984 0.1 101248
06:00−17sw349992 0.0 101242
09:00−13ssw359584 0.1 1011189
12:00−9ssw4789100 0.0 1010363
15:00−8ssw4690100 0.1 1009583
18:00−10ssw3596100 0.4 1008107
21:00−11nw4995100 0.9 1009332
7 march, sun
sun700:00−15nw4797100 0.1 1009204
03:00−21wnw3310091 0.1 101030
06:00−22wsw3310069 0.0 100928
09:00−17ssw359669 0.0 1008181
12:00−11s699389 0.0 1006430
15:00−10s8139395 0.2 1002769
18:00−8s81494100 1.3 999953
21:00−7s81494100 2.4 994922